Wind_Speed
37 37 37 36 34 33 31 29 26 22 19 17 14 12 12 11 11 12 13 14 15 16 19 20 21 21 21 22 22 21 21 21 22 22 21 20 19 17 16 16 16 18 20 20 18 15 15 16 17 16 14 12 10 9 8 8 7 7 7 6 6 5 5 5 4 4 4 3 3 3 3 2 1 2 1 0 1 2 2 3 3 5 5 5 5
38 38 37 36 35 34 31 29 25 20 17 15 13 12 12 11 11 12 13 14 15 17 19 20 21 21 21 21 21 21 21 21 22 22 21 20 20 18 17 16 16 18 19 19 19 16 14 15 16 16 14 12 11 9 8 7 7 7 6 6 6 5 5 5 5 5 5 4 4 4 3 2 1 2 1 1 2 2 3 3 3 4 4 4 5
38 38 36 35 34 32 30 26 22 18 15 14 12 12 11 11 12 12 13 14 15 17 19 20 20 21 21 21 21 21 21 21 22 22 22 21 20 19 17 16 16 18 19 19 19 17 14 13 14 15 14 13 12 10 9 7 7 6 6 5 5 5 5 5 5 5 5 5 5 4 4 3 3 2 2 3 3 3 3 3 3 4 4 4 4
36 35 34 32 31 30 28 23 19 16 14 13 11 11 11 11 12 12 12 13 15 17 19 19 20 20 20 20 21 21 21 21 21 22 22 21 20 19 17 16 16 17 18 18 19 17 14 12 12 13 14 13 12 11 9 8 7 6 6 5 5 4 4 4 5 5 5 5 5 4 4 4 3 2 3 4 3 3 3 2 2 3 4 4 4
33 32 32 31 29 28 25 20 17 15 13 12 11 11 11 11 11 12 12 13 15 17 18 19 19 20 20 20 21 21 21 21 21 21 21 21 20 19 17 16 16 17 17 17 18 17 14 12 10 11 12 13 13 12 10 8 7 6 5 5 4 4 4 4 4 5 5 5 5 5 4 4 3 3 3 4 3 3 2 2 2 2 3 4 4
33 31 31 30 27 25 22 19 16 14 12 11 10 10 11 11 11 12 12 14 15 17 18 19 19 19 19 20 21 21 21 20 20 20 20 21 20 19 18 17 16 16 16 16 16 16 14 11 9 9 10 11 12 11 10 8 6 5 5 4 4 4 3 3 3 3 4 4 5 4 4 3 2 2 3 4 4 3 2 1 1 2 3 3 4
30 29 29 26 24 23 20 18 15 13 11 10 10 10 11 11 11 12 12 13 15 17 18 19 19 19 20 21 22 21 20 20 20 19 20 20 19 18 18 17 16 16 15 15 15 15 14 12 9 8 9 10 10 10 9 8 6 5 4 4 3 3 3 3 3 3 2 3 3 3 3 3 2 2 3 4 4 3 2 1 1 2 2 3 3
26 26 25 23 22 21 18 16 14 12 11 10 10 10 11 11 11 11 12 13 15 17 18 19 19 19 21 23 23 21 20 20 19 19 19 19 18 17 17 17 16 15 15 14 14 14 14 12 10 8 8 9 9 10 9 8 6 5 4 3 3 3 3 3 3 3 2 2 2 2 3 3 1 2 4 4 4 3 2 1 0 1 2 2 3
24 24 23 21 21 19 16 14 13 12 11 11 10 11 11 11 11 11 12 13 15 17 19 20 20 20 22 23 22 21 20 20 18 18 18 18 17 16 17 18 17 16 15 14 13 13 13 13 11 9 8 8 9 9 9 8 7 5 3 2 2 2 2 2 3 2 2 1 1 2 2 2 2 3 4 5 4 3 2 1 0 1 2 2 3
23 23 22 20 19 18 16 14 13 12 11 11 11 11 11 11 11 11 12 13 16 18 19 20 20 21 23 23 21 21 21 20 18 17 17 17 17 15 16 18 18 16 15 14 13 13 13 13 12 11 9 9 9 8 8 7 6 6 4 2 2 1 2 2 2 2 2 1 1 1 2 2 2 3 4 4 4 3 2 2 1 1 1 2 3
23 22 21 19 18 17 15 14 13 12 12 11 11 11 11 11 11 12 12 14 16 18 20 21 21 23 23 21 20 22 21 19 17 16 16 17 16 15 16 18 18 17 15 15 14 13 13 13 12 12 11 9 9 8 7 7 6 6 5 3 2 2 2 2 3 3 2 1 0 1 2 2 2 3 3 4 4 4 3 3 2 1 1 1 2
23 22 20 18 17 16 15 14 13 12 12 11 11 11 11 12 12 12 13 14 17 19 21 22 23 23 21 19 21 22 21 18 16 15 15 16 15 15 16 18 18 16 15 15 14 13 13 13 13 12 11 10 9 8 7 6 6 6 5 4 3 2 1 2 3 3 2 0 2 2 3 3 3 3 4 4 5 4 4 4 3 2 2 1 1
22 21 19 18 17 16 15 14 13 13 12 12 11 11 12 12 12 12 13 14 17 19 21 22 22 22 20 20 22 22 19 17 16 14 15 15 14 14 16 17 16 15 15 15 14 14 14 13 13 13 11 9 9 8 7 6 6 5 5 4 3 2 2 2 3 4 2 1 2 2 3 3 3 3 4 4 5 5 5 5 4 4 3 2 1
20 19 18 17 17 16 15 14 13 13 12 12 12 12 12 12 12 13 13 15 17 19 20 21 21 21 20 21 23 20 18 18 16 14 14 14 13 13 15 15 15 14 15 15 14 14 14 13 13 13 11 9 8 8 7 7 6 5 5 5 4 3 3 3 3 4 2 1 1 3 3 4 3 4 5 5 6 6 6 6 5 4 3 3 2
19 19 18 17 16 15 14 13 13 13 12 12 12 12 12 12 12 12 13 15 17 19 19 19 20 20 21 22 22 19 18 18 16 15 15 14 12 13 14 14 14 13 14 14 14 14 14 13 12 13 12 10 8 7 7 7 6 4 4 4 3 3 2 3 3 4 2 1 2 3 3 4 4 5 5 5 6 7 7 6 5 5 4 3 3
19 18 18 17 16 15 14 14 14 13 13 13 13 13 12 12 12 12 13 15 17 17 17 17 18 19 21 21 20 18 18 18 16 16 15 14 13 13 14 14 13 13 14 14 15 15 14 13 11 12 12 10 8 7 7 8 7 5 4 4 4 3 2 3 3 4 3 3 3 3 4 4 4 5 5 5 6 6 6 6 5 5 4 4 4
19 18 18 17 16 15 15 14 14 13 13 13 13 13 13 12 12 12 14 15 15 15 16 16 17 18 20 19 18 17 17 17 16 16 16 15 14 14 14 13 13 13 13 14 15 16 15 13 11 12 11 10 9 8 8 9 8 6 5 4 3 3 3 3 4 5 5 5 5 5 5 5 5 5 5 5 6 7 7 6 6 6 5 5 5
19 19 18 17 16 15 15 15 14 14 14 14 14 14 13 12 12 13 14 14 14 14 15 16 17 18 19 18 17 17 17 16 15 15 16 16 15 15 14 13 13 13 13 14 15 15 15 13 12 12 12 10 9 8 8 10 10 7 5 4 4 4 4 4 4 5 6 7 7 6 6 6 6 6 7 7 7 8 8 8 7 7 7 7 7
19 19 18 17 16 16 15 15 15 15 15 14 15 14 13 12 12 13 13 13 12 13 15 16 17 17 18 17 16 16 16 15 13 14 16 16 16 15 14 13 13 13 13 13 14 14 14 13 13 14 12 10 9 8 8 10 11 8 5 5 5 5 5 5 5 6 7 7 8 8 8 8 7 8 8 8 9 9 10 10 9 9 8 8 8
19 19 18 17 16 16 16 16 16 15 15 15 15 14 13 12 13 13 13 12 12 13 15 16 17 18 17 16 16 16 15 13 12 14 16 15 15 14 13 13 12 12 12 12 12 12 13 14 14 14 13 10 9 8 8 10 12 8 5 5 6 6 6 6 6 7 7 7 8 8 9 9 9 9 10 10 10 10 11 11 10 10 10 10 10
18 18 17 17 17 16 16 16 16 16 15 15 15 14 13 13 13 13 12 11 12 13 15 17 17 17 17 16 15 15 14 12 12 13 14 14 14 13 13 13 12 12 11 12 12 12 13 15 15 14 12 10 9 8 8 10 12 9 7 6 6 7 7 7 7 7 7 8 8 8 9 9 9 10 11 11 11 11 11 11 11 12 12 12 12
18 17 16 16 16 16 16 16 16 16 16 16 15 14 13 13 14 12 11 11 12 13 15 17 17 17 16 15 14 13 12 11 11 12 13 13 13 13 12 12 12 11 12 12 12 13 14 15 15 14 11 10 8 8 8 9 11 10 8 7 7 8 8 8 9 8 8 8 8 9 9 10 10 11 11 12 12 12 12 12 12 13 13 14 14
16 16 16 16 16 16 16 16 16 16 16 16 15 14 14 14 13 12 11 11 12 13 15 17 17 16 15 15 14 13 12 11 11 11 12 12 13 13 12 12 12 12 12 13 14 14 15 15 15 13 11 10 8 8 8 9 10 10 9 9 8 8 9 9 9 9 8 8 8 9 10 10 11 12 13 13 13 12 12 13 13 14 14 14 14
15 15 15 16 16 16 15 15 15 15 15 15 15 14 14 14 13 12 11 11 12 13 15 16 16 16 15 14 13 13 13 11 10 10 11 11 12 12 12 12 12 13 13 14 14 15 15 15 14 13 12 12 10 8 8 9 10 10 9 10 10 9 9 9 10 9 9 9 9 9 10 11 12 12 13 13 13 13 13 13 14 14 14 14 14
16 15 16 16 16 16 15 15 15 15 15 15 15 15 14 13 12 12 11 11 11 13 15 16 15 15 13 12 12 12 12 10 9 9 10 10 10 11 12 13 12 13 13 14 15 15 15 14 13 13 13 14 13 9 7 9 10 11 10 11 11 10 9 10 10 10 10 10 10 10 10 11 12 13 13 13 13 13 13 13 14 14 14 14 13
17 16 17 17 16 16 15 15 15 16 15 15 15 15 14 13 12 11 11 11 11 13 15 15 14 13 11 10 11 11 10 10 9 9 8 9 9 10 12 13 13 12 13 14 15 15 14 13 12 12 13 14 15 12 8 8 10 10 10 11 12 11 10 10 10 10 10 10 10 11 11 11 12 13 13 13 13 12 12 12 13 13 13 13 12
18 17 17 17 17 16 15 15 15 16 15 15 15 15 14 13 12 11 10 10 11 13 14 14 13 12 9 9 9 9 9 10 9 8 7 8 9 10 12 12 13 13 13 13 14 14 13 13 12 12 13 14 14 14 11 7 7 9 10 12 13 13 12 11 11 10 10 11 11 11 12 12 12 12 13 13 12 12 11 11 11 12 12 11 11
18 17 17 17 17 16 16 15 15 16 16 15 15 14 13 12 11 10 10 10 11 12 13 12 12 10 8 7 7 8 9 9 9 8 8 8 10 11 11 12 12 12 12 12 13 13 12 12 13 13 14 14 14 15 14 10 6 8 11 13 14 14 14 12 11 10 10 11 10 11 12 12 12 12 12 13 12 11 10 9 10 10 10 10 10
17 17 17 17 17 16 16 15 15 16 16 15 14 14 13 11 10 10 10 10 11 12 12 11 10 9 7 7 6 7 8 9 9 9 9 10 11 12 12 13 12 12 12 12 12 12 12 11 12 13 14 15 15 16 16 13 9 8 12 14 15 15 15 13 11 10 9 9 9 10 12 13 13 12 12 12 12 11 10 8 8 8 8 9 9
15 16 17 17 16 16 16 15 15 15 15 15 14 13 12 11 10 10 9 10 11 11 11 10 9 8 7 7 7 8 9 9 10 10 10 10 11 12 13 14 13 13 12 12 12 12 12 12 11 12 13 14 15 17 17 15 12 10 13 16 17 17 16 14 11 9 8 8 8 9 11 12 12 12 11 12 12 11 9 7 7 7 8 9 9
15 15 15 15 16 16 15 15 15 15 15 14 14 13 11 10 10 10 9 10 11 11 10 10 9 8 8 8 8 9 9 10 11 11 11 11 11 12 13 14 15 14 14 14 13 13 13 13 12 12 13 14 15 16 17 16 15 13 13 17 18 18 17 15 11 9 8 8 7 8 10 11 12 11 11 11 11 11 9 7 6 7 7 8 9
14 13 13 13 14 15 15 15 15 15 15 14 13 12 11 11 10 10 10 10 11 11 11 11 10 9 9 9 9 10 11 12 12 12 12 12 12 12 13 15 16 17 16 16 15 15 14 14 14 13 13 13 14 15 16 17 17 15 14 17 19 19 19 16 14 13 11 10 9 8 9 10 12 11 10 9 10 10 10 8 6 6 7 8 8
13 13 12 12 13 14 15 15 15 15 15 14 13 12 11 11 11 11 10 10 11 11 12 12 11 11 11 10 10 10 12 12 13 12 12 12 13 14 15 17 18 19 20 20 18 17 17 16 17 16 14 13 13 14 15 17 18 16 15 17 19 20 19 18 17 16 14 13 11 9 9 10 11 12 10 9 9 9 10 8 7 6 8 8 8
14 14 13 13 13 13 14 15 15 15 15 14 13 12 12 12 11 11 10 11 12 12 13 13 12 12 12 12 12 12 13 13 14 13 13 13 13 15 17 18 19 20 22 22 19 19 19 20 20 19 17 15 14 15 15 16 17 16 15 17 19 21 20 20 20 18 17 17 15 13 12 11 11 11 10 9 8 9 9 9 8 8 9 9 9
15 15 14 14 13 13 14 15 15 15 15 14 13 13 13 12 11 11 11 12 13 13 14 14 13 13 14 14 15 15 15 15 15 14 14 14 15 16 17 19 21 21 23 23 21 20 20 21 23 23 21 18 16 16 15 15 16 15 16 17 19 21 21 23 23 22 21 19 17 16 16 14 11 10 10 9 9 9 10 10 10 10 10 10 10
15 15 15 15 14 14 14 15 15 16 15 15 14 13 13 12 11 11 12 13 14 14 15 15 15 15 16 16 17 17 17 17 17 16 16 16 16 17 18 20 21 22 22 23 23 21 20 22 23 23 24 22 20 18 17 16 16 17 17 17 19 21 23 23 24 24 22 19 17 18 18 16 12 11 10 10 9 10 11 11 11 11 11 11 10
15 15 15 14 14 14 14 15 16 16 15 14 14 14 13 13 12 12 13 13 14 15 17 17 17 17 17 17 18 18 19 19 18 18 17 17 18 19 20 21 21 21 21 22 23 23 21 21 22 22 23 24 23 22 20 18 17 18 19 19 19 21 23 24 24 23 23 21 18 18 19 17 14 13 11 10 10 11 12 12 12 12 12 11 10
16 16 15 14 13 14 15 15 15 15 15 15 14 14 14 13 12 12 13 14 15 16 18 18 18 18 19 19 19 19 19 19 19 19 19 19 19 19 20 21 22 23 23 23 24 25 24 22 21 21 22 23 24 24 24 23 21 20 20 21 20 21 24 26 25 23 24 23 20 18 18 19 17 14 12 11 10 11 13 13 12 12 11 11 10
18 16 15 14 13 14 15 15 16 16 15 15 14 14 14 14 13 13 14 15 16 17 19 19 20 20 20 19 19 20 19 19 19 19 20 20 19 20 21 23 23 23 24 25 24 25 26 25 24 22 22 21 21 23 24 25 25 22 21 21 22 22 25 28 28 24 24 25 22 20 19 20 19 16 13 11 11 11 13 14 13 12 11 11 10
18 16 15 14 14 14 15 15 16 16 16 15 14 14 15 15 15 15 15 16 17 18 20 20 21 21 21 20 20 20 20 19 19 20 20 20 21 21 22 21 21 22 24 25 24 23 24 26 26 25 23 21 20 21 23 25 26 24 22 23 23 24 26 28 29 27 25 26 24 22 21 20 20 18 15 12 12 12 13 14 13 12 11 11 11
18 17 16 15 15 14 14 15 16 16 16 15 15 15 16 16 16 16 17 17 18 19 20 21 22 22 21 21 20 20 19 19 19 20 20 21 20 20 20 21 21 23 25 25 25 24 23 23 25 26 25 23 22 22 23 25 26 25 24 24 24 25 26 27 29 30 28 27 25 24 23 22 22 20 17 14 14 14 14 15 14 12 12 12 11
18 17 17 16 16 15 15 16 16 16 16 16 16 16 17 17 17 17 18 18 19 20 21 22 22 22 22 21 20 20 20 20 21 22 21 20 19 21 23 24 23 24 25 25 26 26 25 23 23 24 25 24 23 22 23 25 27 26 25 26 25 25 27 27 29 31 31 30 27 25 24 23 23 21 19 17 16 15 15 15 15 13 13 12 12
18 17 17 17 17 16 16 16 16 16 17 17 17 17 18 18 18 18 19 20 20 20 21 22 23 22 22 21 20 20 21 22 23 22 22 21 22 25 26 25 25 25 25 25 25 26 27 26 24 24 25 24 24 23 23 24 26 26 26 28 27 26 28 28 28 30 33 32 29 27 25 23 22 20 20 20 18 17 16 16 16 15 14 13 13
19 18 18 18 18 17 16 16 16 17 17 18 18 18 19 19 19 19 20 20 21 21 21 22 23 23 22 21 21 21 21 22 23 22 23 23 24 26 27 28 28 27 26 25 25 26 27 27 27 26 26 25 24 24 24 24 25 26 27 29 28 27 28 28 29 31 32 32 30 29 26 23 21 20 21 22 20 19 18 17 17 16 15 14 14
19 19 19 19 18 18 17 16 17 17 18 19 19 19 20 20 20 20 21 21 21 21 22 23 23 23 23 22 21 21 21 22 23 23 24 24 26 27 29 30 29 28 27 26 26 27 27 28 28 27 26 26 25 23 24 25 25 27 28 28 28 28 26 27 30 32 31 30 30 29 27 25 23 22 23 22 21 20 18 18 18 17 16 15 15
20 20 20 20 20 19 18 18 18 18 19 20 20 20 20 21 21 22 22 22 22 22 23 23 24 24 24 23 22 21 22 22 23 24 24 26 27 29 30 30 29 28 27 26 27 29 29 29 28 28 27 28 27 24 24 26 26 27 27 26 27 27 25 28 31 32 31 30 30 30 28 26 24 24 24 23 22 20 19 19 19 18 17 16 17
21 22 22 22 21 20 20 19 19 19 19 20 20 21 21 22 22 22 23 23 23 23 23 24 24 25 24 23 23 22 22 23 24 24 25 27 29 30 31 31 30 29 28 27 27 28 30 30 29 29 28 28 29 26 25 26 26 26 26 25 26 26 25 27 28 30 32 32 31 31 29 27 25 24 24 24 22 20 19 20 20 19 18 18 17
22 22 23 23 23 22 21 20 20 19 20 20 21 22 22 23 23 23 23 23 23 24 24 24 24 25 25 24 23 23 23 23 24 25 26 27 29 30 31 32 31 31 31 31 30 30 31 31 30 29 29 29 29 28 26 26 25 25 25 25 27 27 26 26 27 29 31 32 32 31 29 27 26 25 26 24 22 20 20 21 20 20 19 19 18
23 23 23 24 24 23 22 21 20 20 20 21 22 23 23 23 23 23 24 24 23 24 24 24 24 25 25 24 24 23 24 24 25 25 26 27 29 30 31 31 32 33 34 35 35 35 34 34 32 31 30 29 28 28 28 27 26 25 25 25 27 28 27 27 29 30 29 30 31 30 30 29 27 27 27 25 23 21 21 21 21 20 20 20 19
25 24 23 24 24 24 23 22 21 20 21 22 23 23 23 23 23 23 24 24 24 24 24 24 24 25 25 25 24 23 24 25 26 26 27 28 29 30 31 31 32 33 35 37 38 38 38 36 34 32 31 29 29 28 28 28 26 25 26 26 27 28 27 28 29 30 29 29 31 32 31 29 29 29 28 26 23 22 22 21 21 21 20 20 20
25 23 23 23 23 23 23 22 21 21 22 23 23 24 24 24 24 24 25 25 25 25 25 24 24 25 25 25 24 23 24 25 26 27 28 29 30 31 31 31 32 33 34 36 38 39 39 38 35 33 31 30 29 29 28 28 26 25 26 27 27 28 29 30 30 30 31 31 32 33 32 31 30 29 27 26 24 22 22 22 21 21 21 20 20
Wind_Direction
297 300 299 302 306 308 306 304 306 304 303 302 298 298 302 308 316 322 326 330 332 333 336 337 337 339 343 347 351 354 354 351 351 351 352 349 344 348 352 352 353 355 356 357 359 1 6 9 10 9 8 6 3 0 358 360 1 360 2 359 357 357 352 346 343 343 350 1 12 23 19 22 24 279 273 241 234 213 182 151 123 102 89 78 66
295 297 297 299 302 305 305 302 303 299 297 296 291 294 299 306 313 319 324 328 330 333 335 336 337 340 344 348 352 354 354 352 352 352 352 351 345 345 349 350 349 351 353 354 357 358 1 7 10 9 8 5 1 358 357 0 359 359 358 356 359 357 348 345 347 345 342 343 351 359 350 340 286 276 289 267 238 207 182 152 123 99 86 75 65
293 294 295 296 298 302 303 301 298 293 291 288 284 290 296 303 309 315 321 325 328 332 334 336 338 341 344 348 351 353 354 352 353 354 353 351 348 344 346 349 348 350 351 352 355 355 356 1 7 9 8 5 1 356 356 357 357 357 354 356 1 356 347 345 347 343 340 340 343 341 328 308 288 297 305 274 240 204 181 153 120 94 79 66 57
292 294 294 294 295 299 301 297 291 287 283 278 278 285 292 299 304 312 318 321 326 330 334 336 338 340 344 347 350 352 352 351 352 353 352 351 348 345 345 348 348 349 350 352 354 355 352 354 2 7 9 6 1 356 354 354 355 354 350 354 355 353 351 348 346 342 340 339 335 330 318 305 302 321 304 275 248 214 185 151 109 82 65 49 40
294 295 294 293 293 296 296 291 284 279 274 269 273 281 288 295 301 309 314 318 324 330 333 336 337 339 342 346 349 350 349 349 351 351 351 350 349 346 346 348 347 348 352 353 354 355 352 350 357 4 7 7 3 358 354 352 353 351 348 349 343 344 349 349 346 342 339 334 329 325 316 305 313 325 296 275 256 230 199 151 100 73 54 39 26
291 292 292 291 291 293 290 283 277 273 267 264 270 278 285 292 298 306 311 316 323 329 332 333 334 337 341 345 348 347 346 347 349 349 349 350 350 348 349 350 349 351 353 355 357 356 353 350 352 358 3 5 4 358 354 350 348 346 344 345 341 336 337 339 342 341 335 334 328 320 310 301 315 316 289 278 265 244 220 165 104 66 48 32 21
287 288 288 289 289 289 285 277 273 270 264 263 269 276 282 289 295 302 308 314 322 327 329 331 332 335 340 344 345 343 343 344 346 348 348 349 350 349 350 351 350 352 354 356 359 356 354 352 348 351 357 0 1 358 352 347 343 340 341 344 342 334 329 329 331 333 331 335 328 318 303 290 308 303 281 278 274 260 245 206 96 56 37 25 19
283 283 285 287 287 287 282 274 270 267 262 264 269 274 280 287 293 300 306 313 321 324 326 328 330 334 339 341 341 340 340 341 343 345 346 347 349 347 347 348 348 350 352 354 358 357 354 353 349 346 349 352 356 356 351 344 339 335 339 343 344 333 325 325 325 329 328 333 327 312 293 280 295 284 269 271 272 266 254 243 66 39 22 20 19
277 279 283 286 286 284 278 272 270 266 261 263 267 272 279 285 292 299 304 312 318 322 325 327 329 332 336 337 338 338 338 338 339 343 344 345 346 344 344 345 345 346 349 351 355 355 354 354 351 345 341 341 345 350 350 344 337 331 334 341 344 334 318 311 317 329 330 337 333 301 280 278 293 278 264 263 262 260 251 245 277 0 5 10 13
271 276 281 283 283 280 274 271 269 262 259 261 264 271 277 284 291 297 302 310 317 321 325 325 326 330 333 335 337 338 336 334 336 340 342 342 342 339 339 341 342 344 346 347 349 351 351 353 352 348 343 335 333 340 348 344 335 327 326 333 339 337 316 305 310 322 314 308 319 293 285 293 293 277 265 259 252 242 230 229 248 307 344 358 359
269 274 278 279 279 276 273 271 265 258 255 258 262 270 277 284 290 296 301 308 316 321 323 323 325 328 331 334 337 337 334 331 333 338 339 339 338 335 336 339 340 342 343 342 343 344 346 350 351 350 347 338 327 329 341 343 336 326 325 332 342 346 327 311 307 297 282 272 349 349 321 302 283 266 259 255 244 226 211 211 219 246 294 333 339
268 272 274 274 275 273 271 268 261 255 255 258 262 270 278 284 289 295 300 307 315 321 321 322 324 327 328 331 336 335 331 329 331 335 336 336 334 333 335 337 339 342 341 339 339 338 339 344 346 347 345 338 328 323 331 338 335 329 328 331 339 340 315 301 296 279 260 308 14 350 317 292 276 260 253 252 246 230 216 214 221 230 241 269 311
267 270 270 269 270 269 268 265 257 254 256 259 264 271 277 283 289 294 300 307 315 319 319 321 323 324 323 327 331 331 329 327 328 331 332 333 332 331 334 337 338 340 339 337 335 332 333 337 341 342 341 334 326 320 321 327 331 330 326 328 331 328 305 283 277 266 244 53 8 323 293 274 268 259 252 250 248 242 233 228 230 231 232 240 278
267 269 267 265 265 265 265 263 256 256 258 261 265 271 278 283 288 293 299 306 313 316 318 320 320 321 320 323 326 327 327 325 324 326 327 328 329 330 332 335 337 338 336 335 334 329 328 331 336 337 336 331 321 314 312 316 321 324 325 326 326 319 302 281 270 259 231 127 325 286 270 257 250 249 244 241 243 243 241 237 234 231 228 233 260
266 266 265 263 264 265 265 261 258 259 261 264 267 272 277 282 286 292 299 305 311 313 316 317 317 318 318 320 323 324 325 324 322 322 322 324 327 328 330 334 336 336 333 333 334 331 326 326 332 333 332 328 318 305 300 304 308 310 316 312 305 299 288 275 267 264 239 191 240 257 253 245 239 240 239 236 239 242 241 239 237 236 235 243 271
265 264 263 263 265 267 266 262 260 261 263 265 267 270 274 278 284 290 297 302 308 312 313 314 316 317 318 320 321 321 324 323 323 322 322 324 325 325 328 333 335 334 332 332 334 333 328 324 327 329 327 326 318 302 289 289 292 292 288 286 286 280 268 263 259 259 247 220 220 229 234 232 230 234 238 238 241 245 246 246 248 251 253 260 280
262 261 261 263 265 267 265 263 262 262 264 265 266 268 271 275 281 287 293 300 306 310 312 315 318 320 320 322 322 321 322 323 324 325 326 328 326 324 326 330 332 332 330 329 329 331 329 324 326 328 323 322 316 304 290 279 277 275 269 267 273 266 250 247 247 246 243 233 224 223 225 227 231 237 243 245 246 249 251 255 259 264 269 273 282
260 259 260 262 266 268 266 265 264 264 265 266 266 266 268 272 277 283 289 297 304 309 313 319 323 323 323 324 323 322 324 323 324 328 332 333 329 324 324 327 328 329 327 324 325 329 332 327 328 330 322 316 314 309 299 280 268 263 262 258 257 255 245 238 236 238 238 236 234 230 228 229 235 242 247 250 251 254 257 259 264 268 273 276 281
261 261 262 264 266 267 266 265 265 265 266 265 264 263 265 268 272 278 286 294 302 311 318 325 326 326 325 326 326 326 329 327 325 330 334 335 332 325 323 325 325 326 325 322 322 328 334 333 330 328 322 313 311 312 306 287 270 259 261 259 252 246 241 235 232 233 232 232 235 236 234 233 236 241 245 249 253 257 261 263 266 270 274 276 277
265 264 265 265 265 265 263 263 263 264 264 263 261 260 260 263 268 274 283 293 303 314 323 327 327 327 327 327 328 331 335 333 327 330 334 336 334 326 322 324 325 324 323 322 321 323 329 332 331 327 321 312 308 312 307 290 277 266 263 261 253 247 240 235 232 230 231 229 232 237 239 239 240 243 246 249 254 258 262 265 268 271 273 274 275
265 265 266 266 265 263 262 262 262 261 261 260 258 257 257 260 265 272 283 294 306 318 325 328 328 327 327 327 330 334 337 336 331 331 334 337 336 329 325 326 328 325 323 323 322 321 321 325 330 327 318 311 308 308 300 286 278 271 265 261 251 247 240 233 233 231 232 234 236 239 242 245 246 248 250 251 254 258 263 266 269 271 272 273 274
263 265 266 268 266 264 263 263 261 260 259 257 255 253 254 259 264 271 283 294 308 321 326 327 326 326 326 326 329 332 334 334 332 332 336 339 340 337 333 332 331 328 325 324 322 320 319 321 327 326 315 310 310 303 290 278 273 269 263 259 250 247 243 235 234 233 232 236 239 243 245 248 250 253 254 255 257 260 264 268 271 272 273 274 274
262 265 268 269 267 265 264 262 260 259 256 254 252 250 253 258 263 271 282 296 311 322 326 325 325 326 326 325 325 325 327 329 329 333 338 340 343 343 342 339 335 331 327 326 323 320 319 320 324 325 313 306 310 301 282 269 265 263 258 257 250 245 246 242 238 237 236 236 239 245 249 251 253 255 257 259 260 262 265 268 272 273 274 275 274
260 263 267 268 267 266 263 260 258 256 253 251 249 249 253 257 262 270 282 298 313 323 324 324 325 326 326 324 320 317 321 323 327 335 338 340 342 343 345 344 340 336 331 328 326 323 321 320 321 323 314 304 305 302 279 263 257 255 254 255 250 241 241 243 241 240 237 236 239 247 255 258 259 259 260 262 263 265 266 269 271 273 275 276 276
257 261 266 268 269 266 262 260 257 254 251 249 248 249 252 255 260 270 284 300 314 321 322 323 324 324 324 321 315 315 318 320 327 337 336 335 338 340 344 345 343 339 335 332 330 327 324 320 319 321 318 306 299 299 281 258 253 251 247 251 253 243 235 238 241 243 241 240 243 249 257 262 266 267 265 265 265 266 269 271 272 274 275 276 276
255 260 266 270 270 265 261 259 256 252 249 247 247 249 252 255 261 272 287 300 312 318 320 322 322 320 320 317 313 315 316 318 329 339 337 331 331 334 341 343 341 338 334 332 330 329 326 320 317 319 320 310 296 292 285 259 252 253 247 247 252 246 235 233 236 240 242 245 249 254 260 264 268 271 271 269 269 269 269 271 273 275 277 277 276
256 261 267 270 268 264 260 258 254 251 247 245 246 248 251 255 262 274 286 298 310 315 319 321 318 316 315 312 311 311 311 315 325 337 336 330 328 331 337 339 338 335 331 328 326 327 326 321 315 315 318 314 298 289 288 276 254 252 247 243 246 246 239 232 232 237 241 246 252 259 265 268 271 274 277 277 275 275 273 272 272 275 277 276 274
259 265 268 268 267 264 261 257 252 247 245 243 244 247 250 256 264 275 284 297 309 314 317 317 312 310 307 303 302 298 300 307 316 325 328 327 327 329 332 333 333 332 328 323 319 319 321 320 315 311 310 311 303 289 288 290 267 245 241 240 243 244 243 237 233 238 244 252 261 271 277 280 280 280 283 284 282 280 277 274 272 275 276 274 270
264 267 266 267 266 262 258 255 248 243 242 242 243 246 249 256 264 273 284 297 307 310 312 310 305 301 295 288 282 282 288 297 305 313 321 324 325 326 327 327 326 326 323 318 313 310 312 316 317 314 308 304 299 289 287 287 273 243 232 236 241 242 243 240 234 234 242 256 270 282 289 291 291 288 287 286 286 285 283 279 274 272 271 269 266
265 267 265 264 264 260 255 251 246 242 240 241 243 245 249 255 262 272 283 295 302 304 304 300 295 288 281 277 274 278 285 293 301 308 316 320 321 323 324 323 322 320 316 312 308 305 305 308 312 315 310 302 295 289 286 281 268 245 227 227 235 242 243 242 239 238 242 255 270 283 291 295 296 296 295 292 290 289 288 286 278 270 266 264 262
264 267 266 263 261 258 252 247 243 240 240 241 243 244 247 254 262 271 280 290 294 294 293 289 281 273 271 273 277 283 289 295 300 306 311 314 315 318 319 319 319 316 313 309 304 302 300 301 305 309 308 303 294 285 282 278 265 248 231 223 229 238 242 244 241 241 251 263 273 283 292 297 298 299 300 297 293 291 293 290 278 268 263 260 259
261 266 265 262 259 255 249 245 241 239 239 240 241 243 247 254 261 267 276 284 284 283 282 280 275 270 270 273 280 288 293 296 298 302 304 306 309 312 314 316 317 316 314 310 305 303 300 297 300 304 305 304 297 283 275 276 265 248 233 225 227 233 240 244 240 244 255 264 272 280 292 302 304 301 298 294 293 294 296 292 278 267 262 259 260
258 263 264 260 257 254 248 243 240 239 238 238 239 242 247 253 259 264 272 277 276 276 277 276 274 272 274 277 282 289 292 294 293 294 295 299 305 310 315 318 319 320 318 314 308 305 306 304 303 304 305 305 299 283 270 272 266 249 234 227 227 230 236 240 240 250 254 255 262 264 278 299 306 303 298 292 289 288 289 285 277 270 267 265 263
256 261 263 260 257 255 248 242 240 239 237 237 239 242 247 251 256 262 269 272 273 275 275 275 273 273 276 280 284 288 290 291 289 288 290 294 302 311 317 321 325 325 323 320 310 302 305 308 309 306 305 304 296 285 273 270 267 253 236 229 228 230 232 232 238 252 250 248 251 251 267 287 299 303 298 291 283 276 277 277 276 273 271 270 266
254 257 258 258 256 253 248 242 239 237 236 238 240 243 246 250 255 262 268 270 272 275 275 274 273 272 275 279 284 287 289 290 289 288 289 294 303 312 320 325 329 329 326 323 315 307 309 309 308 305 304 302 295 288 278 270 266 254 241 232 230 232 232 230 238 249 246 244 246 252 269 277 284 295 292 287 278 270 271 273 275 274 271 272 270
252 253 253 254 255 253 249 244 240 238 239 241 243 244 247 251 257 264 269 272 274 274 273 272 272 271 273 277 282 287 291 293 293 292 294 300 309 318 325 329 330 327 325 321 314 312 312 308 306 304 302 300 296 292 284 272 263 253 247 239 233 235 238 237 240 243 240 241 247 258 270 269 274 287 281 279 275 267 268 270 271 272 273 273 270
251 252 252 252 253 253 251 247 243 242 243 244 244 247 250 254 260 265 271 275 275 274 271 271 271 271 273 276 281 287 293 296 296 297 300 307 316 324 328 328 325 322 319 315 311 310 309 305 304 302 299 296 294 292 287 280 268 256 250 245 239 238 241 243 243 241 239 240 243 258 269 263 267 279 274 270 268 265 265 265 266 269 272 271 268
250 252 253 251 252 253 252 249 246 244 244 245 245 248 252 256 261 266 272 276 275 274 272 272 272 272 274 277 282 287 292 295 296 300 306 312 319 324 324 321 317 315 313 311 309 307 305 303 301 297 294 292 291 289 287 284 276 265 257 250 244 241 241 242 244 243 240 235 238 255 266 260 259 268 269 263 261 262 264 264 264 267 268 265 264
251 253 253 252 252 252 251 248 244 243 244 245 246 248 254 258 262 266 271 275 276 276 275 273 273 273 274 277 281 286 292 294 298 304 309 313 318 320 318 317 318 319 319 317 315 311 306 302 298 295 291 287 286 285 284 282 277 270 262 256 247 245 244 241 242 242 236 232 241 256 262 257 257 261 263 259 256 259 262 262 261 263 262 259 258
251 254 255 253 251 251 250 247 244 245 247 247 248 250 255 260 262 266 271 275 278 279 277 274 273 273 273 276 280 285 290 295 300 304 306 311 315 317 319 322 325 327 326 324 322 321 315 306 299 296 294 289 284 282 280 279 278 271 263 259 251 247 249 243 239 237 233 234 247 258 258 255 256 257 258 257 253 253 259 259 256 257 254 253 255
249 253 256 255 252 252 251 248 247 248 249 248 248 251 256 260 263 267 272 277 280 280 277 274 273 273 273 275 279 284 289 294 297 300 305 313 317 319 322 323 324 324 322 319 318 319 318 312 303 297 295 292 286 280 278 276 277 275 268 263 254 247 248 244 238 234 233 238 249 255 254 254 254 253 253 256 252 249 254 254 252 250 248 248 254
247 252 256 256 254 253 251 250 248 248 248 248 250 254 258 261 265 270 275 279 281 281 278 275 273 274 275 276 280 285 289 292 295 301 308 316 319 318 318 318 319 318 317 315 312 311 311 309 304 299 295 292 286 278 274 272 273 276 274 268 259 248 244 241 239 237 237 240 245 248 250 252 253 251 251 255 252 247 249 250 248 245 244 246 252
246 250 254 255 254 253 251 249 248 248 249 251 255 258 261 264 268 272 277 280 283 284 281 279 277 276 277 278 282 286 290 294 299 305 309 313 316 316 316 317 317 316 314 312 309 308 308 305 301 298 296 293 288 280 273 270 270 271 272 269 261 252 244 239 238 240 240 240 240 242 246 249 249 247 248 251 249 245 245 246 244 243 244 245 251
244 247 249 251 251 251 249 247 247 249 252 255 259 262 264 268 272 275 278 281 285 287 285 282 280 279 279 280 283 287 292 296 301 307 309 311 314 315 316 317 316 314 313 311 308 306 305 303 298 295 293 292 289 282 273 268 267 266 268 268 261 254 248 241 238 239 240 241 240 240 243 244 242 241 243 245 244 242 242 244 243 242 244 245 250
242 243 245 248 249 248 247 247 248 251 255 259 262 265 269 272 275 276 278 282 287 289 287 284 282 282 281 281 283 286 291 297 302 307 310 313 315 316 316 316 315 315 312 310 307 305 303 300 296 292 288 287 286 281 272 265 262 260 263 266 259 253 248 239 238 241 242 242 240 239 241 241 239 238 240 243 242 239 240 242 241 241 242 245 250
241 242 245 247 248 248 248 249 250 253 257 261 265 268 271 273 274 276 280 285 289 291 289 286 285 284 282 282 283 286 291 297 302 307 311 315 316 316 317 317 316 314 311 307 305 304 304 301 296 291 284 281 281 278 271 264 259 257 259 262 258 252 243 236 238 242 244 243 240 239 240 239 237 237 239 241 240 238 239 241 239 239 243 246 247
240 242 246 249 250 250 251 251 251 253 257 262 266 269 271 273 276 279 283 287 289 291 290 288 287 286 285 284 285 288 293 299 304 308 313 316 317 318 319 319 317 314 310 306 304 303 303 301 297 292 285 280 277 276 272 266 260 258 258 257 253 248 241 238 240 241 244 244 238 235 236 237 238 238 239 240 238 237 239 240 238 238 243 246 245
239 240 244 249 251 251 251 250 251 253 258 262 265 268 272 275 279 282 284 288 291 293 292 291 289 287 286 285 287 290 295 301 306 310 315 317 318 319 320 319 318 315 312 309 308 306 304 301 297 292 286 281 277 273 271 267 261 257 258 255 250 246 242 239 240 242 244 241 234 231 233 234 236 238 240 240 238 237 239 240 238 237 241 244 244
235 236 239 245 249 252 251 250 251 254 258 262 265 268 272 276 279 282 286 290 293 294 294 292 289 287 286 286 288 291 296 301 306 311 315 317 317 318 319 319 317 315 313 311 310 309 307 303 298 293 287 282 276 271 268 267 261 256 257 256 250 248 243 237 239 243 243 238 230 228 230 231 231 234 238 238 236 236 238 239 238 237 239 243 245
229 232 236 243 248 252 252 250 251 255 260 264 267 270 273 276 279 283 286 289 292 293 293 291 289 286 285 285 287 291 296 302 307 311 314 316 316 317 318 318 317 314 312 311 310 309 307 303 299 295 290 282 275 269 264 264 261 255 256 256 250 246 241 236 239 244 243 238 231 228 229 230 228 230 233 235 234 234 236 238 238 238 240 243 246
226 231 237 243 248 251 250 250 252 257 262 266 270 272 274 276 279 282 284 287 290 292 293 292 290 288 286 285 286 291 297 302 307 311 313 315 315 316 317 318 316 313 311 310 310 309 306 302 298 294 290 281 274 269 263 259 257 252 254 256 253 248 242 235 235 239 240 238 233 229 228 228 227 228 231 233 233 233 234 235 236 238 241 243 246
Height
5871 5871 5870 5869 5869 5869 5868 5867 5867 5866 5865 5864 5863 5863 5863 5863 5863 5862 5862 5861 5861 5860 5860 5859 5858 5857 5856 5855 5854 5853 5852 5851 5850 5849 5848 5847 5846 5845 5844 5843 5843 5842 5842 5841 5840 5839 5838 5837 5836 5834 5833 5832 5831 5830 5830 5830 5829 5829 5829 5829 5829 5828 5828 5828 5828 5827 5826 5826 5827 5826 5826 5826 5826 5827 5826 5825 5825 5825 5825 5824 5823 5822 5822 5822 5822
5869 5869 5868 5868 5867 5867 5866 5866 5865 5865 5864 5864 5863 5863 5863 5863 5862 5862 5862 5861 5861 5860 5860 5859 5858 5857 5856 5855 5853 5853 5852 5851 5850 5849 5848 5847 5845 5845 5844 5843 5843 5842 5842 5841 5840 5839 5838 5837 5836 5835 5834 5833 5832 5831 5830 5830 5829 5829 5829 5829 5829 5828 5828 5828 5828 5827 5827 5826 5826 5826 5826 5826 5826 5827 5826 5825 5825 5825 5825 5824 5823 5823 5822 5822 5822
5868 5867 5866 5866 5866 5866 5865 5864 5864 5864 5864 5863 5863 5863 5863 5862 5862 5862 5861 5861 5860 5860 5859 5859 5858 5857 5856 5854 5853 5852 5851 5850 5849 5848 5847 5846 5845 5845 5844 5844 5843 5842 5841 5841 5840 5839 5838 5837 5836 5835 5834 5833 5832 5831 5830 5830 5829 5829 5829 5829 5828 5828 5828 5828 5828 5827 5827 5827 5826 5826 5826 5826 5826 5826 5826 5826 5826 5826 5825 5824 5823 5823 5822 5822 5822
5866 5865 5865 5865 5864 5864 5864 5863 5863 5863 5863 5863 5862 5862 5862 5862 5862 5862 5861 5861 5860 5860 5859 5858 5858 5856 5855 5854 5853 5852 5851 5850 5849 5848 5847 5846 5845 5845 5844 5844 5843 5842 5841 5840 5839 5838 5838 5837 5836 5835 5834 5834 5833 5831 5830 5830 5829 5829 5829 5829 5829 5828 5828 5828 5828 5827 5827 5827 5827 5827 5826 5826 5826 5826 5826 5826 5826 5826 5825 5824 5823 5823 5822 5822 5821
5864 5864 5863 5863 5863 5863 5863 5863 5862 5862 5862 5862 5862 5862 5862 5862 5862 5861 5861 5860 5860 5860 5859 5858 5857 5856 5855 5854 5853 5851 5850 5849 5848 5847 5847 5846 5845 5844 5844 5843 5842 5842 5841 5840 5839 5838 5838 5837 5836 5836 5835 5834 5833 5832 5831 5830 5830 5829 5829 5829 5829 5829 5828 5828 5828 5828 5827 5827 5827 5827 5826 5826 5826 5826 5826 5826 5826 5826 5825 5824 5823 5823 5822 5822 5821
5863 5863 5862 5862 5862 5862 5862 5862 5862 5862 5862 5862 5862 5862 5862 5861 5861 5861 5861 5860 5860 5859 5859 5858 5857 5856 5855 5854 5852 5851 5850 5849 5848 5847 5846 5845 5845 5844 5843 5843 5842 5841 5841 5840 5839 5838 5838 5837 5837 5836 5835 5834 5833 5832 5831 5830 5830 5829 5829 5829 5829 5829 5829 5829 5829 5828 5828 5827 5827 5827 5826 5826 5826 5826 5826 5826 5826 5826 5825 5824 5823 5823 5822 5822 5822
5861 5861 5861 5861 5861 5861 5861 5861 5861 5861 5861 5862 5862 5861 5861 5861 5861 5861 5861 5860 5860 5859 5858 5857 5856 5855 5854 5853 5852 5851 5849 5848 5847 5847 5846 5845 5844 5843 5843 5842 5841 5841 5840 5839 5838 5838 5837 5837 5836 5836 5835 5834 5833 5832 5831 5830 5830 5829 5828 5828 5828 5828 5828 5828 5828 5828 5828 5828 5827 5827 5827 5826 5826 5826 5826 5826 5826 5826 5825 5825 5824 5823 5823 5822 5822
5860 5860 5860 5860 5860 5859 5860 5860 5860 5860 5861 5861 5861 5861 5861 5861 5861 5861 5860 5860 5859 5859 5858 5857 5856 5855 5854 5853 5851 5850 5849 5848 5847 5846 5845 5844 5844 5843 5842 5841 5841 5840 5840 5839 5838 5837 5837 5837 5836 5836 5835 5834 5833 5832 5831 5830 5830 5829 5829 5828 5828 5828 5828 5828 5828 5828 5828 5828 5827 5827 5827 5827 5826 5826 5827 5826 5826 5826 5825 5825 5824 5823 5823 5823 5822
5859 5859 5859 5859 5859 5859 5859 5859 5859 5860 5860 5860 5860 5860 5860 5860 5860 5860 5860 5859 5859 5858 5858 5857 5856 5854 5853 5852 5851 5849 5848 5847 5846 5845 5844 5844 5843 5842 5841 5840 5840 5840 5839 5838 5838 5837 5837 5836 5836 5835 5835 5834 5833 5832 5831 5831 5830 5830 5829 5828 5828 5827 5827 5827 5828 5828 5827 5827 5827 5827 5827 5827 5826 5826 5826 5826 5826 5825 5825 5825 5824 5824 5823 5823 5822
5858 5858 5858 5858 5858 5858 5858 5859 5859 5859 5859 5859 5859 5860 5860 5860 5860 5860 5859 5859 5858 5858 5857 5856 5855 5854 5852 5851 5850 5849 5848 5846 5845 5844 5844 5843 5842 5841 5840 5840 5839 5839 5839 5838 5837 5837 5836 5836 5835 5835 5834 5834 5833 5832 5831 5831 5830 5829 5829 5828 5828 5827 5827 5827 5827 5827 5827 5827 5827 5827 5827 5826 5826 5826 5826 5826 5825 5825 5825 5825 5824 5824 5823 5823 5822
5857 5857 5857 5857 5857 5857 5858 5858 5858 5858 5858 5858 5859 5859 5859 5859 5859 5859 5859 5859 5858 5857 5856 5855 5854 5853 5851 5850 5849 5848 5847 5845 5844 5844 5843 5842 5841 5840 5840 5839 5838 5838 5838 5838 5837 5836 5836 5835 5835 5834 5833 5833 5832 5832 5831 5831 5830 5830 5829 5828 5828 5827 5827 5827 5827 5827 5827 5827 5826 5826 5826 5826 5826 5826 5826 5826 5825 5825 5825 5824 5824 5824 5823 5823 5822
5856 5856 5856 5856 5856 5857 5857 5857 5857 5857 5857 5858 5858 5859 5859 5859 5859 5858 5858 5858 5858 5857 5856 5854 5853 5852 5851 5849 5848 5847 5846 5844 5843 5843 5842 5841 5840 5839 5839 5838 5837 5837 5837 5837 5837 5836 5835 5835 5834 5833 5833 5832 5832 5832 5831 5831 5830 5830 5829 5828 5828 5827 5827 5827 5827 5827 5827 5827 5826 5826 5826 5826 5826 5826 5825 5825 5825 5825 5824 5824 5824 5823 5823 5823 5822
5855 5855 5855 5855 5855 5856 5856 5856 5856 5856 5857 5857 5858 5858 5858 5858 5858 5858 5858 5858 5857 5856 5855 5854 5852 5851 5849 5848 5847 5846 5845 5843 5842 5842 5840 5840 5839 5838 5837 5837 5836 5836 5836 5836 5836 5835 5835 5834 5833 5833 5832 5832 5831 5831 5831 5830 5830 5829 5829 5828 5828 5827 5827 5827 5827 5827 5827 5826 5826 5826 5826 5826 5826 5825 5825 5825 5825 5825 5824 5824 5824 5823 5823 5822 5822
5854 5853 5853 5854 5854 5855 5855 5855 5855 5856 5856 5857 5857 5857 5857 5857 5857 5857 5857 5857 5856 5855 5854 5853 5852 5850 5848 5847 5846 5845 5843 5842 5841 5840 5839 5838 5838 5837 5836 5836 5835 5835 5835 5835 5835 5835 5834 5834 5833 5832 5831 5831 5831 5831 5831 5830 5830 5829 5829 5828 5828 5827 5827 5827 5827 5827 5827 5826 5826 5826 5826 5826 5825 5825 5825 5825 5825 5825 5824 5824 5823 5823 5823 5822 5822
5852 5852 5852 5853 5853 5854 5854 5854 5855 5855 5856 5856 5856 5856 5856 5856 5856 5856 5856 5856 5855 5854 5853 5852 5851 5849 5847 5846 5845 5844 5842 5841 5840 5839 5838 5837 5837 5836 5835 5835 5834 5834 5834 5834 5834 5834 5834 5833 5833 5831 5831 5830 5830 5830 5830 5830 5830 5829 5829 5828 5828 5827 5827 5827 5827 5827 5826 5826 5826 5826 5826 5825 5825 5825 5825 5825 5825 5825 5824 5824 5823 5823 5822 5822 5822
5851 5851 5851 5852 5852 5853 5853 5853 5854 5854 5855 5855 5855 5854 5855 5855 5855 5855 5855 5855 5854 5853 5852 5851 5849 5847 5846 5845 5844 5843 5842 5840 5839 5838 5837 5837 5836 5835 5834 5834 5834 5833 5833 5833 5833 5833 5833 5832 5832 5831 5830 5829 5829 5829 5829 5830 5829 5829 5828 5828 5827 5827 5826 5826 5826 5826 5826 5826 5826 5826 5825 5825 5825 5825 5825 5824 5824 5824 5824 5824 5823 5823 5822 5822 5821
5850 5850 5850 5851 5851 5852 5852 5852 5853 5853 5854 5854 5853 5853 5854 5854 5854 5854 5854 5853 5853 5852 5851 5850 5848 5846 5845 5844 5843 5842 5841 5839 5838 5838 5837 5836 5835 5834 5834 5833 5832 5832 5832 5832 5832 5832 5832 5832 5831 5830 5829 5828 5828 5828 5828 5829 5829 5828 5827 5827 5827 5826 5826 5826 5826 5826 5826 5826 5825 5825 5825 5824 5824 5824 5824 5824 5824 5824 5824 5823 5823 5823 5822 5822 5821
5848 5848 5849 5850 5850 5850 5851 5851 5852 5852 5852 5852 5852 5852 5853 5853 5853 5853 5853 5852 5852 5851 5850 5849 5847 5846 5844 5843 5842 5841 5840 5838 5837 5837 5836 5835 5835 5834 5833 5832 5832 5831 5831 5831 5831 5831 5830 5830 5830 5830 5829 5828 5827 5827 5827 5828 5828 5827 5826 5826 5826 5826 5825 5825 5825 5825 5825 5825 5825 5824 5824 5824 5824 5823 5823 5823 5823 5823 5823 5823 5822 5822 5822 5821 5821
5847 5847 5848 5848 5849 5849 5850 5850 5851 5851 5852 5852 5851 5851 5852 5852 5852 5852 5852 5851 5851 5850 5849 5847 5846 5845 5843 5842 5841 5840 5839 5837 5837 5836 5835 5835 5834 5833 5832 5831 5831 5830 5830 5829 5829 5829 5829 5829 5829 5829 5828 5827 5827 5826 5826 5826 5826 5826 5826 5825 5825 5825 5825 5825 5825 5824 5824 5824 5824 5824 5823 5823 5823 5823 5823 5823 5823 5822 5822 5822 5822 5821 5821 5821 5821
5845 5846 5847 5847 5848 5848 5849 5849 5850 5850 5850 5850 5850 5850 5851 5851 5851 5851 5851 5850 5850 5849 5848 5846 5845 5844 5843 5841 5840 5839 5838 5837 5836 5835 5835 5834 5833 5832 5832 5831 5830 5829 5828 5828 5828 5828 5828 5828 5828 5828 5827 5827 5826 5825 5825 5825 5825 5825 5825 5824 5825 5824 5824 5824 5824 5824 5823 5823 5823 5823 5823 5822 5822 5822 5821 5821 5821 5821 5821 5821 5821 5821 5820 5820 5820
5844 5845 5846 5846 5847 5847 5848 5848 5849 5849 5849 5849 5849 5850 5850 5850 5850 5850 5850 5849 5849 5848 5847 5846 5844 5843 5842 5841 5840 5839 5838 5836 5836 5835 5834 5833 5832 5832 5831 5830 5829 5828 5827 5827 5826 5826 5826 5826 5826 5826 5826 5826 5825 5825 5825 5824 5823 5823 5823 5823 5823 5824 5824 5823 5823 5823 5822 5822 5822 5822 5822 5821 5821 5820 5820 5820 5820 5820 5820 5819 5819 5819 5819 5819 5819
5843 5844 5844 5845 5845 5846 5847 5847 5848 5848 5848 5848 5848 5849 5849 5849 5849 5849 5849 5849 5848 5847 5846 5845 5843 5842 5841 5840 5839 5838 5837 5836 5835 5834 5833 5833 5832 5831 5830 5829 5828 5827 5826 5826 5825 5825 5824 5824 5824 5824 5825 5825 5824 5824 5824 5823 5822 5821 5822 5822 5822 5823 5823 5822 5822 5822 5822 5821 5821 5821 5820 5820 5820 5819 5819 5819 5819 5818 5818 5818 5818 5818 5818 5818 5818
5842 5843 5843 5844 5844 5845 5846 5846 5847 5847 5847 5847 5847 5848 5848 5848 5848 5848 5848 5848 5847 5847 5845 5844 5843 5842 5840 5839 5838 5837 5836 5836 5835 5834 5833 5832 5831 5831 5830 5829 5828 5827 5825 5825 5824 5823 5823 5822 5822 5823 5823 5823 5823 5823 5823 5822 5821 5820 5820 5821 5821 5821 5822 5822 5821 5821 5821 5821 5820 5820 5819 5819 5818 5818 5818 5817 5817 5817 5817 5817 5817 5817 5817 5817 5816
5841 5841 5842 5842 5843 5844 5844 5845 5845 5846 5846 5846 5846 5847 5847 5847 5847 5847 5847 5847 5847 5846 5845 5843 5842 5841 5839 5838 5837 5836 5836 5835 5835 5834 5833 5832 5831 5830 5829 5828 5827 5826 5825 5824 5823 5822 5822 5821 5821 5821 5821 5822 5821 5821 5822 5821 5820 5819 5819 5819 5820 5821 5821 5821 5821 5821 5820 5820 5819 5818 5818 5817 5817 5817 5817 5816 5816 5816 5815 5815 5815 5815 5815 5815 5815
5840 5840 5841 5841 5842 5843 5843 5844 5844 5844 5845 5845 5845 5846 5846 5846 5846 5847 5847 5846 5846 5845 5844 5842 5841 5840 5839 5838 5836 5835 5835 5834 5834 5833 5832 5831 5830 5829 5828 5827 5826 5825 5824 5823 5822 5821 5820 5820 5819 5820 5820 5820 5820 5820 5820 5820 5819 5818 5818 5818 5819 5820 5820 5820 5820 5820 5820 5819 5818 5817 5816 5816 5816 5816 5815 5815 5814 5814 5814 5814 5814 5814 5814 5814 5814
5838 5839 5839 5840 5841 5842 5842 5843 5843 5843 5843 5844 5844 5845 5845 5845 5846 5846 5846 5845 5845 5844 5843 5842 5840 5839 5838 5837 5836 5835 5834 5833 5833 5832 5831 5830 5829 5828 5827 5826 5825 5824 5823 5822 5821 5820 5819 5819 5818 5818 5818 5818 5818 5818 5819 5818 5818 5817 5817 5817 5818 5818 5818 5818 5818 5818 5818 5818 5817 5816 5815 5815 5814 5814 5814 5814 5813 5813 5813 5812 5812 5812 5812 5812 5812
5837 5838 5838 5839 5840 5841 5841 5841 5842 5842 5842 5843 5843 5843 5844 5844 5845 5845 5845 5844 5844 5843 5842 5841 5839 5838 5837 5836 5835 5834 5833 5832 5831 5830 5829 5828 5827 5827 5826 5825 5823 5823 5822 5820 5819 5819 5818 5818 5817 5817 5817 5817 5817 5817 5817 5817 5817 5817 5817 5816 5816 5817 5817 5817 5817 5817 5817 5817 5816 5816 5815 5814 5813 5813 5813 5813 5812 5812 5812 5811 5811 5811 5811 5811 5811
5835 5836 5837 5838 5839 5839 5840 5840 5840 5840 5841 5841 5842 5842 5843 5843 5844 5844 5844 5843 5842 5841 5841 5840 5838 5837 5837 5836 5834 5833 5832 5830 5829 5828 5828 5827 5826 5825 5824 5823 5822 5821 5820 5819 5818 5817 5817 5816 5816 5816 5816 5816 5815 5815 5815 5816 5816 5816 5816 5815 5815 5815 5816 5815 5815 5815 5816 5815 5815 5815 5814 5813 5813 5812 5811 5811 5811 5811 5811 5810 5810 5809 5809 5809 5810
5834 5834 5835 5836 5837 5838 5838 5838 5839 5839 5840 5840 5841 5841 5841 5842 5842 5842 5842 5842 5841 5840 5840 5839 5838 5837 5836 5835 5833 5832 5830 5829 5828 5827 5826 5826 5825 5824 5823 5822 5821 5820 5818 5817 5816 5815 5815 5815 5814 5814 5814 5814 5814 5813 5814 5815 5815 5815 5815 5814 5814 5814 5814 5814 5814 5814 5814 5814 5814 5814 5813 5813 5812 5812 5811 5811 5811 5810 5810 5809 5809 5808 5808 5808 5808
5832 5832 5833 5834 5835 5836 5836 5837 5837 5838 5838 5839 5840 5840 5840 5841 5841 5841 5841 5841 5840 5839 5838 5838 5837 5836 5835 5833 5832 5830 5829 5828 5827 5826 5825 5824 5823 5822 5821 5820 5819 5818 5817 5816 5815 5814 5813 5813 5813 5812 5812 5812 5812 5811 5812 5813 5813 5813 5813 5813 5812 5812 5813 5813 5813 5813 5813 5812 5812 5812 5812 5812 5811 5811 5811 5810 5810 5810 5809 5809 5808 5807 5807 5807 5807
5830 5830 5831 5832 5834 5834 5835 5836 5836 5837 5837 5838 5838 5839 5839 5839 5839 5840 5840 5839 5838 5838 5837 5836 5836 5835 5834 5832 5831 5829 5828 5827 5826 5825 5824 5823 5822 5821 5820 5819 5818 5817 5816 5815 5813 5812 5812 5811 5811 5811 5810 5810 5810 5809 5809 5810 5810 5811 5811 5811 5811 5811 5811 5812 5813 5812 5812 5811 5810 5810 5810 5810 5810 5809 5809 5809 5810 5809 5809 5808 5807 5806 5806 5806 5806
5828 5829 5829 5831 5832 5832 5833 5834 5835 5835 5836 5836 5837 5837 5838 5838 5838 5838 5838 5838 5837 5836 5835 5835 5834 5833 5832 5831 5830 5828 5827 5826 5825 5824 5822 5821 5820 5819 5819 5818 5817 5816 5815 5814 5813 5812 5811 5810 5810 5809 5809 5808 5808 5807 5807 5808 5808 5808 5809 5809 5809 5809 5810 5811 5811 5811 5810 5810 5809 5808 5809 5809 5809 5808 5808 5808 5809 5809 5808 5808 5807 5806 5806 5806 5805
5827 5827 5828 5829 5830 5831 5832 5832 5833 5834 5834 5835 5836 5836 5836 5836 5837 5837 5836 5836 5835 5834 5833 5833 5833 5832 5831 5830 5828 5827 5826 5825 5824 5823 5821 5820 5819 5818 5818 5818 5817 5817 5815 5814 5813 5812 5811 5811 5810 5809 5808 5807 5806 5805 5805 5805 5805 5806 5807 5807 5808 5807 5808 5809 5809 5809 5809 5809 5808 5807 5807 5808 5808 5808 5807 5807 5807 5808 5808 5807 5806 5806 5805 5805 5805
5826 5826 5827 5827 5828 5829 5830 5831 5831 5832 5833 5833 5834 5834 5835 5835 5835 5835 5834 5833 5832 5832 5832 5831 5831 5830 5829 5828 5827 5826 5825 5824 5823 5822 5821 5820 5819 5818 5818 5818 5818 5817 5815 5814 5813 5813 5812 5812 5810 5809 5808 5807 5805 5804 5804 5804 5803 5804 5805 5805 5806 5805 5805 5806 5807 5807 5807 5807 5807 5807 5807 5807 5807 5807 5806 5806 5807 5807 5807 5807 5806 5805 5805 5804 5804
5825 5825 5825 5826 5826 5827 5828 5829 5829 5830 5831 5832 5832 5833 5833 5833 5833 5833 5832 5831 5830 5830 5830 5830 5829 5829 5828 5826 5825 5824 5824 5823 5822 5821 5820 5820 5819 5819 5819 5818 5818 5817 5815 5813 5811 5811 5812 5811 5809 5808 5807 5806 5805 5803 5802 5802 5802 5802 5803 5804 5804 5803 5803 5804 5805 5805 5805 5806 5806 5806 5806 5806 5806 5805 5805 5806 5806 5806 5807 5806 5805 5805 5804 5804 5803
5823 5824 5824 5824 5825 5826 5826 5827 5828 5828 5829 5830 5831 5831 5831 5831 5831 5831 5830 5829 5829 5828 5828 5828 5827 5826 5826 5825 5824 5823 5823 5822 5821 5821 5820 5820 5820 5819 5819 5818 5817 5815 5814 5812 5810 5808 5808 5808 5807 5806 5805 5805 5804 5802 5801 5801 5800 5800 5801 5802 5802 5802 5801 5801 5802 5803 5803 5804 5805 5805 5805 5805 5805 5804 5804 5805 5805 5806 5806 5805 5805 5804 5804 5803 5803
5821 5822 5822 5823 5824 5824 5825 5825 5826 5827 5827 5828 5829 5829 5830 5830 5830 5829 5828 5828 5827 5827 5826 5826 5825 5824 5824 5823 5823 5822 5821 5821 5820 5820 5820 5819 5819 5818 5817 5816 5815 5813 5812 5810 5808 5806 5805 5804 5804 5803 5803 5802 5802 5801 5800 5800 5799 5798 5799 5800 5800 5800 5799 5799 5800 5801 5802 5803 5803 5803 5803 5804 5804 5804 5803 5803 5804 5804 5805 5804 5804 5803 5803 5802 5802
5819 5820 5820 5821 5822 5822 5823 5824 5824 5825 5826 5827 5827 5828 5828 5828 5828 5827 5827 5826 5825 5825 5824 5823 5823 5822 5822 5822 5821 5821 5820 5819 5819 5819 5819 5818 5817 5816 5815 5813 5812 5811 5809 5808 5806 5804 5802 5801 5801 5800 5800 5800 5799 5799 5798 5798 5797 5797 5796 5797 5798 5799 5798 5797 5798 5799 5800 5801 5801 5801 5802 5802 5802 5802 5802 5802 5802 5803 5803 5803 5803 5802 5802 5802 5801
5817 5818 5818 5819 5820 5820 5821 5822 5823 5824 5824 5825 5825 5826 5826 5826 5826 5826 5825 5824 5823 5823 5822 5821 5821 5820 5820 5820 5820 5819 5818 5818 5817 5817 5816 5815 5814 5814 5812 5811 5809 5808 5807 5806 5804 5802 5800 5799 5798 5797 5797 5797 5797 5796 5796 5795 5795 5794 5794 5794 5795 5796 5796 5796 5796 5797 5798 5798 5799 5799 5800 5800 5801 5801 5801 5801 5801 5801 5802 5802 5802 5801 5801 5801 5801
5815 5815 5816 5817 5818 5819 5820 5821 5821 5822 5823 5823 5824 5824 5824 5824 5824 5824 5824 5823 5822 5821 5820 5819 5819 5819 5819 5819 5819 5818 5817 5816 5815 5814 5813 5813 5812 5811 5810 5809 5807 5806 5804 5803 5801 5800 5799 5797 5796 5795 5794 5794 5794 5793 5793 5792 5792 5792 5792 5791 5792 5793 5793 5793 5793 5794 5795 5796 5797 5797 5797 5798 5799 5799 5800 5800 5800 5800 5801 5801 5801 5800 5800 5800 5800
5812 5813 5814 5815 5816 5817 5818 5819 5819 5820 5821 5822 5822 5823 5823 5823 5822 5822 5822 5821 5820 5819 5818 5817 5817 5817 5817 5817 5817 5816 5815 5814 5812 5811 5811 5811 5811 5810 5808 5807 5805 5804 5802 5801 5799 5798 5797 5796 5794 5792 5792 5791 5791 5790 5790 5789 5789 5789 5789 5789 5789 5789 5790 5790 5791 5791 5792 5793 5794 5795 5795 5796 5797 5797 5798 5799 5798 5799 5799 5800 5799 5799 5799 5799 5799
5810 5811 5812 5813 5814 5815 5816 5817 5818 5818 5819 5820 5820 5821 5821 5821 5821 5820 5820 5819 5818 5817 5816 5816 5815 5815 5816 5816 5815 5814 5812 5811 5809 5809 5809 5809 5808 5807 5806 5805 5804 5802 5801 5799 5797 5795 5795 5793 5792 5790 5789 5789 5788 5787 5787 5786 5786 5786 5786 5786 5786 5787 5787 5787 5788 5789 5790 5790 5792 5793 5793 5794 5794 5795 5797 5797 5797 5797 5798 5798 5798 5797 5797 5797 5798
5808 5809 5810 5811 5812 5813 5814 5815 5816 5817 5817 5818 5819 5819 5819 5819 5819 5819 5818 5817 5816 5815 5814 5814 5814 5814 5814 5814 5813 5811 5810 5808 5807 5807 5807 5806 5806 5804 5804 5803 5802 5800 5799 5797 5795 5793 5792 5791 5789 5788 5787 5786 5785 5784 5784 5783 5783 5783 5783 5782 5783 5783 5784 5784 5785 5786 5786 5787 5789 5790 5791 5792 5792 5793 5794 5795 5796 5796 5796 5796 5796 5796 5796 5796 5797
5806 5807 5808 5809 5810 5812 5813 5814 5814 5815 5815 5816 5817 5817 5817 5817 5817 5817 5816 5815 5814 5813 5812 5811 5811 5812 5812 5811 5810 5809 5807 5806 5805 5805 5804 5804 5803 5802 5801 5800 5799 5798 5796 5795 5793 5791 5789 5787 5786 5785 5784 5783 5782 5781 5780 5780 5779 5779 5779 5779 5779 5780 5780 5782 5782 5781 5782 5784 5786 5787 5788 5790 5791 5791 5792 5793 5794 5794 5794 5795 5795 5794 5794 5794 5795
5804 5805 5806 5807 5809 5810 5811 5812 5813 5813 5814 5814 5815 5815 5815 5815 5815 5815 5814 5813 5812 5811 5810 5809 5809 5809 5809 5809 5809 5807 5806 5804 5803 5803 5802 5801 5800 5799 5798 5797 5796 5795 5793 5791 5789 5787 5786 5784 5782 5781 5780 5779 5779 5778 5777 5776 5775 5775 5775 5776 5776 5776 5777 5779 5778 5778 5779 5781 5783 5784 5786 5787 5788 5789 5790 5791 5792 5792 5793 5793 5793 5792 5792 5793 5793
5802 5803 5804 5805 5807 5808 5809 5810 5811 5812 5812 5812 5813 5813 5813 5812 5812 5812 5812 5811 5810 5809 5808 5807 5807 5807 5807 5807 5806 5805 5804 5803 5802 5801 5800 5799 5797 5796 5795 5794 5793 5791 5790 5788 5786 5784 5782 5780 5779 5778 5777 5775 5774 5774 5774 5772 5771 5771 5772 5773 5772 5773 5774 5775 5775 5776 5777 5779 5780 5782 5783 5784 5786 5787 5788 5789 5790 5790 5791 5791 5791 5791 5791 5791 5792
5800 5801 5802 5803 5805 5806 5807 5808 5809 5810 5810 5810 5810 5810 5810 5810 5810 5810 5809 5809 5808 5807 5806 5805 5804 5804 5804 5804 5804 5803 5802 5801 5800 5799 5798 5796 5794 5792 5791 5790 5789 5787 5786 5785 5783 5781 5779 5777 5775 5774 5773 5771 5770 5770 5770 5769 5768 5768 5768 5769 5769 5770 5771 5772 5773 5773 5774 5775 5777 5778 5780 5781 5783 5784 5785 5786 5787 5788 5788 5789 5789 5789 5789 5789 5790
5797 5798 5800 5801 5803 5804 5805 5806 5807 5807 5808 5808 5808 5808 5808 5808 5808 5807 5807 5806 5805 5805 5804 5803 5802 5801 5801 5801 5801 5800 5799 5798 5797 5796 5795 5793 5791 5790 5788 5786 5785 5783 5781 5780 5778 5776 5775 5773 5771 5769 5768 5767 5766 5766 5765 5765 5764 5764 5765 5766 5766 5766 5768 5769 5770 5770 5771 5772 5774 5776 5777 5779 5780 5781 5782 5783 5784 5785 5786 5786 5787 5787 5787 5788 5788
5794 5795 5797 5798 5800 5802 5803 5804 5805 5805 5806 5806 5806 5806 5806 5806 5805 5805 5805 5804 5803 5802 5801 5800 5800 5799 5799 5798 5798 5797 5796 5795 5794 5793 5792 5791 5789 5787 5786 5784 5782 5779 5776 5774 5772 5771 5770 5768 5766 5765 5763 5763 5762 5762 5762 5761 5761 5761 5761 5762 5763 5763 5764 5766 5767 5768 5768 5769 5771 5773 5774 5776 5778 5778 5778 5780 5781 5782 5783 5784 5785 5785 5786 5786 5786
5791 5792 5794 5796 5798 5800 5801 5802 5802 5803 5803 5804 5804 5804 5804 5804 5803 5803 5802 5802 5801 5800 5799 5798 5797 5796 5796 5796 5796 5795 5794 5792 5791 5791 5790 5788 5787 5785 5784 5782 5779 5776 5773 5771 5768 5766 5764 5763 5761 5760 5759 5758 5758 5757 5758 5758 5758 5757 5757 5758 5759 5759 5761 5762 5764 5765 5766 5766 5768 5769 5771 5773 5774 5774 5775 5776 5778 5779 5780 5782 5783 5783 5784 5784 5785
5788 5790 5792 5794 5796 5797 5799 5800 5800 5800 5801 5801 5802 5802 5801 5801 5801 5801 5800 5799 5799 5798 5797 5796 5795 5794 5793 5793 5793 5793 5792 5790 5789 5788 5786 5785 5784 5783 5781 5780 5777 5774 5771 5768 5765 5762 5760 5758 5756 5755 5754 5753 5753 5753 5754 5754 5754 5754 5753 5754 5755 5756 5757 5759 5760 5762 5762 5763 5764 5766 5767 5769 5770 5771 5773 5774 5775 5777 5778 5779 5780 5781 5781 5782 5783